Time,TemperatureF,DewpointF,PressureIn,WindDirection,WindDirectionDegrees,WindSpeedMPH,WindSpeedGustMPH,Humidity,HourlyPrecipIn,Conditions,Clouds,dailyrainin,SolarRadiationWatts/m^2,SoftwareType,DateUTC
2013-02-05 00:03:00,35.2,26.0,31.61,ENE,76,1.0,1.0,70,0.00,,,0.00,0,weatherlink.com 1.10,2013-02-05 07:03:00,
2013-02-05 00:18:00,34.7,26.0,31.61,ENE,76,0.0,1.0,71,0.00,,,0.00,0,weatherlink.com 1.10,2013-02-05 07:18:00,
2013-02-05 00:33:00,34.4,26.0,31.60,ENE,69,1.0,3.0,71,0.00,,,0.00,0,weatherlink.com 1.10,2013-02-05 07:33:00,
2013-02-05 00:48:00,34.5,26.0,31.61,NE,55,1.0,2.0,71,0.00,,,0.00,0,weatherlink.com 1.10,2013-02-05 07:48:00,
2013-02-05 01:03:00,34.7,26.0,31.60,NE,55,0.0,2.0,71,0.00,,,0.00,0,weatherlink.com 1.10,2013-02-05 08:03:00,
2013-02-05 01:18:00,35.4,26.0,31.59,NE,55,0.0,1.0,69,0.00,,,0.00,0,weatherlink.com 1.10,2013-02-05 08:18:00,
2013-02-05 01:33:00,35.6,26.0,31.59,ENE,67,0.0,2.0,69,0.00,,,0.00,0,weatherlink.com 1.10,2013-02-05 08:33:00,
2013-02-05 01:49:00,35.0,26.0,31.59,ESE,109,1.0,2.0,70,0.00,,,0.00,0,weatherlink.com 1.10,2013-02-05 08:49:00,
2013-02-05 02:04:00,35.0,26.0,31.59,SE,135,0.0,6.0,71,0.00,,,0.00,0,weatherlink.com 1.10,2013-02-05 09:04:00,
2013-02-05 02:19:00,34.0,26.0,31.59,SSE,166,2.0,4.0,73,0.00,,,0.00,0,weatherlink.com 1.10,2013-02-05 09:19:00,
2013-02-05 02:34:00,33.5,26.0,31.58,SSE,164,0.0,1.0,74,0.00,,,0.00,0,weatherlink.com 1.10,2013-02-05 09:34:00,
2013-02-05 02:49:00,34.4,26.0,31.57,ENE,74,0.0,5.0,70,0.00,,,0.00,0,weatherlink.com 1.10,2013-02-05 09:49:00,
2013-02-05 03:04:00,34.3,26.0,31.58,SSE,154,3.0,7.0,73,0.00,,,0.00,0,weatherlink.com 1.10,2013-02-05 10:04:00,
2013-02-05 03:19:00,33.4,26.0,31.57,SE,141,0.0,3.0,74,0.00,,,0.00,0,weatherlink.com 1.10,2013-02-05 10:19:00,
2013-02-05 03:34:00,33.9,26.0,31.57,SE,141,0.0,1.0,73,0.00,,,0.00,0,weatherlink.com 1.10,2013-02-05 10:34:00,
2013-02-05 03:49:00,33.7,26.0,31.57,SE,141,1.0,1.0,73,0.00,,,0.00,0,weatherlink.com 1.10,2013-02-05 10:49:00,
2013-02-05 04:04:00,33.6,26.0,31.57,SE,141,0.0,2.0,74,0.00,,,0.00,0,weatherlink.com 1.10,2013-02-05 11:04:00,
2013-02-05 04:19:00,33.2,26.0,31.57,SSE,157,3.0,3.0,76,0.00,,,0.00,0,weatherlink.com 1.10,2013-02-05 11:19:00,
2013-02-05 04:34:00,33.0,26.0,31.56,SE,125,3.0,3.0,76,0.00,,,0.00,0,weatherlink.com 1.10,2013-02-05 11:34:00,
2013-02-05 04:49:00,35.3,27.0,31.57,West,272,1.0,7.0,71,0.00,,,0.00,0,weatherlink.com 1.10,2013-02-05 11:49:00,
2013-02-05 05:04:00,33.7,26.0,31.56,SE,146,3.0,4.0,74,0.00,,,0.00,0,weatherlink.com 1.10,2013-02-05 12:04:00,
2013-02-05 05:19:00,34.0,26.0,31.56,East,79,1.0,3.0,73,0.00,,,0.00,0,weatherlink.com 1.10,2013-02-05 12:19:00,
2013-02-05 05:34:00,33.7,27.0,31.56,SSE,155,5.0,6.0,75,0.00,,,0.00,0,weatherlink.com 1.10,2013-02-05 12:34:00,
2013-02-05 05:49:00,36.2,27.0,31.56,South,170,6.0,10.0,70,0.00,,,0.00,0,weatherlink.com 1.10,2013-02-05 12:49:00,
2013-02-05 06:04:00,36.2,28.0,31.55,SSE,148,9.0,16.0,71,0.00,,,0.00,0,weatherlink.com 1.10,2013-02-05 13:04:00,
2013-02-05 06:19:00,35.9,27.0,31.55,SSW,203,1.0,11.0,71,0.00,,,0.00,0,weatherlink.com 1.10,2013-02-05 13:19:00,
2013-02-05 06:34:00,33.6,26.0,31.55,SSW,200,3.0,6.0,75,0.00,,,0.00,0,weatherlink.com 1.10,2013-02-05 13:34:00,
2013-02-05 06:49:00,34.8,28.0,31.54,SSE,165,9.0,10.0,77,0.00,,,0.00,0,weatherlink.com 1.10,2013-02-05 13:49:00,
2013-02-05 07:04:00,35.6,28.0,31.54,SSE,161,7.0,10.0,75,0.00,,,0.00,0,weatherlink.com 1.10,2013-02-05 14:04:00,
2013-02-05 07:19:00,33.4,27.0,31.54,South,180,3.0,5.0,78,0.00,,,0.00,0,weatherlink.com 1.10,2013-02-05 14:19:00,
2013-02-05 07:34:00,35.0,28.0,31.54,SSE,164,7.0,12.0,76,0.00,,,0.00,0,weatherlink.com 1.10,2013-02-05 14:34:00,
2013-02-05 07:49:00,35.1,28.0,31.54,South,175,7.0,10.0,76,0.00,,,0.00,0,weatherlink.com 1.10,2013-02-05 14:49:00,
2013-02-05 08:04:00,35.1,29.0,31.53,South,171,3.0,14.0,77,0.00,,,0.00,11,weatherlink.com 1.10,2013-02-05 15:04:00,
2013-02-05 08:19:00,35.3,29.0,31.53,SSE,152,6.0,11.0,78,0.00,,,0.00,19,weatherlink.com 1.10,2013-02-05 15:19:00,
2013-02-05 08:34:00,35.6,29.0,31.53,South,183,6.0,13.0,78,0.00,,,0.00,26,weatherlink.com 1.10,2013-02-05 15:34:00,
2013-02-05 08:49:00,35.9,29.0,31.53,SSE,149,8.0,10.0,77,0.00,,,0.00,72,weatherlink.com 1.10,2013-02-05 15:49:00,
2013-02-05 09:04:00,35.7,28.0,31.53,NNW,337,0.0,9.0,74,0.00,,,0.00,62,weatherlink.com 1.10,2013-02-05 16:04:00,
2013-02-05 09:19:00,34.6,28.0,31.53,NW,315,0.0,2.0,78,0.00,,,0.00,62,weatherlink.com 1.10,2013-02-05 16:19:00,
2013-02-05 09:34:00,34.3,28.0,31.53,WSW,244,0.0,3.0,77,0.00,,,0.00,42,weatherlink.com 1.10,2013-02-05 16:34:00,
2013-02-05 09:49:00,35.3,30.0,31.51,SE,145,17.0,18.0,82,0.00,,,0.00,37,weatherlink.com 1.10,2013-02-05 16:49:00,
2013-02-05 10:04:00,36.0,31.0,31.51,SSE,166,9.0,17.0,83,0.00,,,0.00,72,weatherlink.com 1.10,2013-02-05 17:04:00,
2013-02-05 10:20:00,36.7,31.0,31.50,SSE,153,8.0,17.0,81,0.00,,,0.00,113,weatherlink.com 1.10,2013-02-05 17:20:00,
2013-02-05 10:35:00,36.5,30.0,31.50,NNW,340,3.0,12.0,77,0.00,,,0.00,146,weatherlink.com 1.10,2013-02-05 17:35:00,
2013-02-05 10:50:00,34.2,29.0,31.50,NNW,346,0.0,6.0,80,0.00,,,0.00,162,weatherlink.com 1.10,2013-02-05 17:50:00,
2013-02-05 11:05:00,34.9,30.0,31.50,SSW,192,0.0,4.0,81,0.00,,,0.00,149,weatherlink.com 1.10,2013-02-05 18:05:00,
2013-02-05 11:20:00,36.7,30.0,31.49,West,260,3.0,8.0,78,0.00,,,0.00,169,weatherlink.com 1.10,2013-02-05 18:20:00,
2013-02-05 11:35:00,36.8,31.0,31.50,SW,220,2.0,5.0,79,0.00,,,0.00,258,weatherlink.com 1.10,2013-02-05 18:35:00,
2013-02-05 11:50:00,37.0,30.0,31.49,SW,217,1.0,4.0,77,0.00,,,0.00,225,weatherlink.com 1.10,2013-02-05 18:50:00,
2013-02-05 12:05:00,37.7,31.0,31.48,SW,233,0.0,4.0,76,0.00,,,0.00,179,weatherlink.com 1.10,2013-02-05 19:05:00,
2013-02-05 12:20:00,38.0,31.0,31.46,SSW,209,0.0,5.0,77,0.00,,,0.00,269,weatherlink.com 1.10,2013-02-05 19:20:00,
2013-02-05 12:35:00,39.2,32.0,31.46,WNW,291,3.0,9.0,74,0.00,,,0.00,237,weatherlink.com 1.10,2013-02-05 19:35:00,
2013-02-05 12:50:00,38.4,31.0,31.45,SSE,166,3.0,6.0,75,0.00,,,0.00,174,weatherlink.com 1.10,2013-02-05 19:50:00,
2013-02-05 13:20:00,41.2,29.0,31.43,South,178,9.0,12.0,63,0.00,,,0.00,211,weatherlink.com 1.10,2013-02-05 20:20:00,
2013-02-05 13:35:00,41.8,30.0,31.42,SW,232,7.0,12.0,63,0.00,,,0.00,323,weatherlink.com 1.10,2013-02-05 20:35:00,
2013-02-05 13:50:00,41.5,31.0,31.41,SSW,201,1.0,6.0,67,0.00,,,0.00,243,weatherlink.com 1.10,2013-02-05 20:50:00,
2013-02-05 14:05:00,40.7,31.0,31.41,SSW,207,0.0,3.0,69,0.00,,,0.00,213,weatherlink.com 1.10,2013-02-05 21:05:00,
2013-02-05 14:20:00,41.1,30.0,31.40,SSE,155,0.0,2.0,66,0.00,,,0.00,113,weatherlink.com 1.10,2013-02-05 21:20:00,
2013-02-05 14:35:00,42.5,28.0,31.39,South,188,5.0,10.0,58,0.00,,,0.00,148,weatherlink.com 1.10,2013-02-05 21:35:00,
2013-02-05 14:50:00,-999.0,-99.9,31.39,North,-999,-999.0,-999.0,-999,0.00,,,0.00,,weatherlink.com 1.10,2013-02-05 21:50:00,
2013-02-05 15:05:00,43.6,29.0,31.39,SSW,205,0.0,8.0,56,0.00,,,0.00,221,weatherlink.com 1.10,2013-02-05 22:05:00,
2013-02-05 15:20:00,43.3,30.0,31.38,NW,319,3.0,6.0,60,0.00,,,0.00,137,weatherlink.com 1.10,2013-02-05 22:20:00,
2013-02-05 15:35:00,42.6,26.0,31.38,West,259,3.0,9.0,53,0.00,,,0.00,123,weatherlink.com 1.10,2013-02-05 22:35:00,
2013-02-05 15:50:00,43.3,26.0,31.38,WSW,244,0.0,4.0,50,0.00,,,0.00,91,weatherlink.com 1.10,2013-02-05 22:50:00,
2013-02-05 16:05:00,43.7,26.0,31.38,South,189,0.0,4.0,50,0.00,,,0.00,76,weatherlink.com 1.10,2013-02-05 23:05:00,
2013-02-05 16:20:00,43.6,26.0,31.38,SW,230,2.0,3.0,51,0.00,,,0.00,141,weatherlink.com 1.10,2013-02-05 23:20:00,
2013-02-05 16:35:00,43.4,26.0,31.38,ESE,112,5.0,5.0,51,0.00,,,0.00,132,weatherlink.com 1.10,2013-02-05 23:35:00,
2013-02-05 16:50:00,43.4,26.0,31.37,South,175,0.0,2.0,50,0.00,,,0.00,79,weatherlink.com 1.10,2013-02-05 23:50:00,
2013-02-05 17:05:00,43.2,29.0,31.38,SW,221,0.0,1.0,57,0.00,,,0.00,63,weatherlink.com 1.10,2013-02-06 00:05:00,
2013-02-05 17:20:00,42.8,28.0,31.37,SW,221,1.0,2.0,57,0.00,,,0.00,23,weatherlink.com 1.10,2013-02-06 00:20:00,
2013-02-05 17:35:00,41.9,27.0,31.37,SW,221,0.0,2.0,56,0.00,,,0.00,11,weatherlink.com 1.10,2013-02-06 00:35:00,
2013-02-05 17:50:00,40.9,27.0,31.38,NNW,327,0.0,6.0,57,0.00,,,0.00,0,weatherlink.com 1.10,2013-02-06 00:50:00,
2013-02-05 18:05:00,40.6,26.0,31.38,NNE,23,1.0,5.0,56,0.00,,,0.00,0,weatherlink.com 1.10,2013-02-06 01:05:00,
2013-02-05 18:20:00,40.2,25.0,31.38,North,355,2.0,3.0,55,0.00,,,0.00,0,weatherlink.com 1.10,2013-02-06 01:20:00,
2013-02-05 18:35:00,39.8,25.0,31.38,ESE,106,3.0,5.0,56,0.00,,,0.00,0,weatherlink.com 1.10,2013-02-06 01:35:00,
2013-02-05 18:50:00,39.8,26.0,31.39,WNW,288,0.0,6.0,57,0.00,,,0.00,0,weatherlink.com 1.10,2013-02-06 01:50:00,
2013-02-05 19:05:00,39.7,26.0,31.39,NW,323,5.0,11.0,58,0.00,,,0.00,0,weatherlink.com 1.10,2013-02-06 02:05:00,
2013-02-05 19:20:00,40.0,26.0,31.39,NNW,338,1.0,8.0,57,0.00,,,0.00,0,weatherlink.com 1.10,2013-02-06 02:20:00,
2013-02-05 19:35:00,40.0,26.0,31.39,NW,304,4.0,9.0,57,0.00,,,0.00,0,weatherlink.com 1.10,2013-02-06 02:35:00,
2013-02-05 19:50:00,39.7,26.0,31.40,NW,326,6.0,11.0,59,0.00,,,0.00,0,weatherlink.com 1.10,2013-02-06 02:50:00,
2013-02-05 20:05:00,37.0,28.0,31.41,NW,309,7.0,17.0,69,0.00,,,0.00,0,weatherlink.com 1.10,2013-02-06 03:05:00,
2013-02-05 20:20:00,36.2,28.0,31.40,WSW,257,2.0,13.0,73,0.00,,,0.00,0,weatherlink.com 1.10,2013-02-06 03:20:00,
2013-02-05 20:36:00,-999.0,-99.9,31.40,North,-999,-999.0,-999.0,-999,0.00,,,0.00,,weatherlink.com 1.10,2013-02-06 03:36:00,
2013-02-05 20:51:00,35.7,28.0,31.41,North,360,4.0,8.0,73,0.00,,,0.00,0,weatherlink.com 1.10,2013-02-06 03:51:00,
2013-02-05 21:06:00,35.9,28.0,31.41,NE,36,2.0,5.0,73,0.00,,,0.00,0,weatherlink.com 1.10,2013-02-06 04:06:00,
2013-02-05 21:21:00,36.3,28.0,31.42,NW,325,6.0,9.0,72,0.00,,,0.00,0,weatherlink.com 1.10,2013-02-06 04:21:00,
2013-02-05 21:36:00,36.5,28.0,31.42,North,355,4.0,13.0,71,0.00,,,0.00,0,weatherlink.com 1.10,2013-02-06 04:36:00,
2013-02-05 21:51:00,36.0,28.0,31.44,NNE,13,8.0,17.0,73,0.00,,,0.00,0,weatherlink.com 1.10,2013-02-06 04:51:00,
2013-02-05 22:06:00,35.1,28.0,31.45,NNE,22,7.0,17.0,76,0.00,,,0.00,0,weatherlink.com 1.10,2013-02-06 05:06:00,
2013-02-05 22:21:00,34.8,27.0,31.46,North,355,10.0,19.0,74,0.00,,,0.00,0,weatherlink.com 1.10,2013-02-06 05:21:00,
2013-02-05 22:36:00,35.3,26.0,31.46,NNE,29,4.0,18.0,68,0.00,,,0.00,0,weatherlink.com 1.10,2013-02-06 05:36:00,
2013-02-05 22:51:00,35.6,24.0,31.47,North,10,12.0,21.0,63,0.00,,,0.00,0,weatherlink.com 1.10,2013-02-06 05:51:00,
2013-02-05 23:06:00,35.6,22.0,31.48,NW,320,10.0,22.0,59,0.00,,,0.00,0,weatherlink.com 1.10,2013-02-06 06:06:00,
2013-02-05 23:21:00,35.3,21.0,31.50,NNW,332,12.0,23.0,56,0.00,,,0.00,0,weatherlink.com 1.10,2013-02-06 06:21:00,
2013-02-05 23:36:00,35.3,20.0,31.51,WSW,239,8.0,21.0,55,0.00,,,0.00,0,weatherlink.com 1.10,2013-02-06 06:36:00,
2013-02-05 23:51:00,35.5,21.0,31.52,WSW,244,4.0,15.0,57,0.00,,,0.00,0,weatherlink.com 1.10,2013-02-06 06:51:00,